Weather History for Barking Sands, HI

Change the Weather History Date:

Friday, April 12, 2013

  Actual Average Record
Temperature  
Mean Temperature 76 °F -  
Max Temperature 82 °F 84 °F 87 °F (1969)
Min Temperature 69 °F 63 °F 60 °F (1957)
Cooling Degree Days 10    
Growing Degree Days 26 (Base 50)    
Moisture  
Dew Point 67 °F    
Average Humidity 75    
Maximum Humidity 94    
Minimum Humidity 60    
Precipitation  
Precipitation 0.06 in - - ()
Sea Level Pressure  
Sea Level Pressure 29.93 in    
Wind  
Wind Speed 9 mph (SE)    
Max Wind Speed 20 mph    
Max Gust Speed 26 mph    
Visibility 9 miles    
Events Rain    
Averages and records for this station are not official NWS values.
T = Trace of Precipitation, MM = Missing Value Source: NWS Daily Summary

Daily Weather History Graph

Daily Weather History Graph

Search for Another Location

Airport:

Trip Planner

Search our weather history database for the weather conditions in past years. The results will help you decide how hot, cold, wet, or windy it might be!

Date:

Astronomy

Apr. 12, 2013 Rise Set
Actual Time 6:21 AM HST 6:58 PM HST
Civil Twilight 5:58 AM HST 7:20 PM HST
Nautical Twilight 5:32 AM HST 7:47 PM HST
Astronomical Twilight 5:05 AM HST 8:14 PM HST
Moon 7:55 AM HST (4/12) 9:21 PM HST (4/12)
Length of Visible Light 13h 22m
Length of Day
12h 36m
Waxing Crescent, 6% of the Moon is Illuminated
Apr 12
Waxing Crescent
Apr 18
First Quarter
Apr 25
Full
May 2
Last Quarter
May 9
New

Hourly Weather History & Observations

Time (HST) Temp. Heat Index Dew Point Humidity Pressure Visibility Wind Dir Wind Speed Gust Speed Precip Events Conditions
12:56 AM 71.1 °F - 63.0 °F 75% 29.96 in 10.0 mi SSE 3.5 mph - N/A   Clear
1:56 AM 69.1 °F - 62.1 °F 78% 29.95 in 10.0 mi SE 4.6 mph - N/A   Clear
2:56 AM 71.1 °F - 62.1 °F 73% 29.94 in 10.0 mi SE 3.5 mph - N/A   Scattered Clouds
3:56 AM 71.1 °F - 64.0 °F 78% 29.93 in 10.0 mi SE 5.8 mph - N/A   Clear
4:56 AM 73.0 °F - 64.9 °F 76% 29.92 in 10.0 mi SE 3.5 mph - N/A   Clear
5:56 AM 73.0 °F - 64.9 °F 76% 29.92 in 10.0 mi SE 9.2 mph - N/A   Scattered Clouds
6:56 AM 73.0 °F - 66.9 °F 81% 29.94 in 10.0 mi SSE 9.2 mph - 0.00 in   Overcast
7:12 AM 73.4 °F - 68.0 °F 83% 29.94 in 6.0 mi SE 9.2 mph - 0.00 in Rain Light Rain
7:25 AM 73.4 °F - 69.8 °F 88% 29.94 in 5.0 mi SSE 10.4 mph 23.0 mph 0.00 in Rain Light Rain
7:32 AM 71.6 °F - 69.8 °F 94% 29.94 in 5.0 mi SE 9.2 mph 16.1 mph 0.00 in Rain Light Rain
7:41 AM 71.6 °F - 69.8 °F 94% 29.95 in 10.0 mi SE 10.4 mph 18.4 mph 0.00 in   Overcast
7:56 AM 73.0 °F - 69.1 °F 87% 29.96 in 4.0 mi SE 13.8 mph 19.6 mph 0.00 in Rain Light Rain
8:18 AM 73.4 °F - 68.0 °F 83% 29.95 in 6.2 mi SE 12.7 mph 18.4 mph 0.00 in   Overcast
8:56 AM 75.9 °F - 68.0 °F 76% 29.98 in 9.0 mi ESE 11.5 mph - 0.00 in   Overcast
9:56 AM 79.0 °F - 68.0 °F 69% 29.97 in 10.0 mi SE 12.7 mph 20.7 mph N/A   Mostly Cloudy
10:56 AM 80.1 °F 82.7 °F 68.0 °F 67% 29.96 in 10.0 mi SSE 16.1 mph 21.9 mph N/A   Overcast
11:39 AM 80.6 °F 83.2 °F 68.0 °F 65% 29.94 in 6.2 mi SSE 13.8 mph 21.9 mph N/A   Mostly Cloudy
11:56 AM 79.0 °F - 69.1 °F 72% 29.94 in 9.0 mi SE 13.8 mph 23.0 mph 0.00 in Rain Light Rain
12:56 PM 80.1 °F 82.7 °F 68.0 °F 67% 29.91 in 10.0 mi SE 18.4 mph 26.5 mph 0.00 in   Mostly Cloudy
1:56 PM 82.0 °F 84.5 °F 66.9 °F 60% 29.89 in 10.0 mi SSE 18.4 mph 25.3 mph N/A   Partly Cloudy
2:23 PM 78.8 °F - 73.4 °F 83% 29.88 in 5.0 mi SSE 12.7 mph 19.6 mph 0.00 in Rain Light Rain
2:51 PM 80.6 °F 83.9 °F 69.8 °F 70% 29.88 in 10.0 mi SSE 16.1 mph 25.3 mph 0.00 in   Mostly Cloudy
2:56 PM 81.0 °F 84.1 °F 69.1 °F 67% 29.89 in 10.0 mi SSE 19.6 mph 25.3 mph 0.00 in   Mostly Cloudy
3:56 PM 79.0 °F - 66.9 °F 66% 29.90 in 10.0 mi SSE 9.2 mph 23.0 mph N/A   Overcast
4:56 PM 79.0 °F - 68.0 °F 69% 29.89 in 10.0 mi SSE 9.2 mph 18.4 mph N/A   Mostly Cloudy
5:56 PM 77.0 °F - 66.9 °F 71% 29.88 in 10.0 mi ESE 10.4 mph 19.6 mph N/A   Partly Cloudy
6:56 PM 77.0 °F - 62.1 °F 60% 29.88 in 10.0 mi SE 9.2 mph - N/A   Clear
7:56 PM 75.9 °F - 66.0 °F 71% 29.91 in 10.0 mi SE 6.9 mph - N/A   Clear
8:56 PM 75.0 °F - 66.0 °F 73% 29.94 in 10.0 mi SE 10.4 mph - N/A   Clear
9:56 PM 75.9 °F - 66.0 °F 71% 29.94 in 10.0 mi ESE 9.2 mph - N/A   Clear
10:56 PM 75.9 °F - 64.0 °F 67% 29.95 in 10.0 mi SE 10.4 mph - 0.00 in Rain Light Rain
11:56 PM 73.0 °F - 66.9 °F 81% 29.94 in 6.0 mi ESE 13.8 mph - 0.06 in Rain Rain